AirNav   Pilot Hours Calculator
 
 1410 users online  

3T2 Wolfe Air Park
Manvel, Texas, USA

GOING TO MANVEL?


FAA INFORMATION EFFECTIVE 21 APRIL 2022

Location

FAA Identifier: 3T2
Lat/Long: 29-28-44.7000N 095-19-35.6000W
29-28.745000N 095-19.593333W
29.4790833,-95.3265556
(estimated)
Elevation: 55 ft. / 17 m (estimated)
Variation: 06E (1985)
From city: 2 miles NE of MANVEL, TX
Time zone: UTC -5 (UTC -6 during Standard Time)
Zip code: 77578

Airport Operations

Airport use: Open to the public
Activation date: 01/1981
Control tower: no
ARTCC: HOUSTON CENTER
FSS: MONTGOMERY COUNTY FLIGHT SERVICE STATION
NOTAMs facility: CXO (NOTAM-D service available)
Attendance: DAYLIGHT HOURS
Wind indicator: yes
Segmented circle: no
Lights: SS-SR

Airport Communications

CTAF: 122.9
WX ASOS at LVJ (5 nm NE): 118.525 (281-992-1853)
WX AWOS-3 at AXH (8 nm W): 123.625 (281-431-6572)
WX ASOS at HOU (10 nm N): PHONE 713-847-1462
WX AWOS-3 at EFD (12 nm NE): 135.575 (713-847-4430)
WX AWOS-3PT at T41 (18 nm NE): 120.275 (281-471-2206)
WX ASOS at SGR (19 nm NW): 118.125 (281-242-7605)

Nearby radio navigation aids

VOR radial/distance  VOR name  Freq  Var
VUHr292/27.1SCHOLES VOR/DME113.0006E
IAHr173/28.7HUMBLE VORTAC116.6005E
MHFr255/30.5TRINITY VOR/DME113.6007E

Airport Services

Parking: hangars and tiedowns
Airframe service: MAJOR
Powerplant service: MAJOR

Runway Information

Runway 2/20

Dimensions: 2910 x 80 ft. / 887 x 24 m
Surface: turf, in good condition
Runway edge lights: non-standard
SOLAR LGTS.
RUNWAY 2  RUNWAY 20
Latitude: 29-28.529022N29-28.961888N
Longitude: 095-19.711895W095-19.474193W
Elevation: 54.0 ft.53.0 ft.
Traffic pattern: leftleft
Runway heading: 020 magnetic, 026 true200 magnetic, 206 true
Obstructions: 40 ft. trees, 290 ft. from runway, 40 ft. right of centerline, 7:1 slope to clear15 ft. road, 50 ft. from runway, 125 ft. left of centerline, 3:1 slope to clear

Airport Ownership and Management from official FAA records

Ownership: Privately-owned
Owner: WOLFE AIRPARK CIVIC CLUB INC
PO BOX 941
MANVEL, TX 77578
Phone 832-423-9982
Manager: KRISTOFOR GIBER
8802 BELCHER
MANVEL, TX 77578
Phone 915-449-9100

Airport Operational Statistics

Aircraft based on the field: 77
Single engine airplanes: 74
Multi engine airplanes: 2
Helicopters: 1
    
Aircraft operations: avg 44/day *
80% local general aviation
20% transient general aviation
* for 12-month period ending 25 April 2020

Additional Remarks

DITCH XNG RWY 20 THR.
FIRST 400 FT OF EACH END OF RWY UNUSBL WHEN WET.
FOR CD CTC HOUSTON APCH AT 281-443-5844 TO CNL IFR CALL 281-443-5888.
NO TSNT TGLS.

Instrument Procedures

There are no published instrument procedures at 3T2.

Some nearby airports with instrument procedures:

KLVJ - Pearland Regional Airport (5 nm NE)
KAXH - Houston Southwest Airport (8 nm W)
KHOU - William P Hobby Airport (10 nm N)
KEFD - Ellington Airport (12 nm NE)
T41 - La Porte Municipal Airport (18 nm NE)
KSGR - Sugar Land Regional Airport (19 nm NW)
 
Loc | Ops | Rwys | IFR | FBO | Links
Com | Nav | Svcs | Stats | Notes
Area around 3T2 (Wolfe Air Park)
 
Road maps at: MapQuest Bing Google
 
Aerial photo
WARNING: Photo may not be current or correct
Aerial photo of 3T2 (Wolfe Air Park)
Photo by Bryan Jones
Photo taken 30-Oct-2018
looking northeast.

Do you have a better or more recent aerial photo of Wolfe Air Park that you would like to share? If so, please send us your photo.

 
Sectional chart

 
Airport distance calculator
Flying to Wolfe Air Park? Find the distance to fly.

From to 3T2

Sunrise and sunset
Times for 18-May-2022
 Local
(UTC-5)
 Zulu
(UTC)
Morning civil twilight06:0211:02
Sunrise06:2811:28
Sunset20:0701:07
Evening civil twilight20:3401:34

Current date and time
Zulu (UTC)  18-May-2022 22:22:09
Local (UTC-5)  18-May-2022 17:22:09
 
METAR
KLVJ 
5nm NE 
182153Z AUTO 19010G17KT 10SM CLR 31/22 A2991 RMK AO2 SLP126 T03110217
KAXH 
8nm W 
182155Z AUTO 17006KT 10SM CLR 35/19 A2990 RMK AO2 T03450191
KHOU 
10nm N 
182153Z 16012G21KT 10SM FEW050 FEW250 33/21 A2988 RMK AO2 SLP122 T03280206
KEFD 
11nm NE 
182154Z 16013G20KT 10SM FEW050 31/21 A2989
KT41 
18nm NE 
182155Z AUTO 18012G16KT 10SM CLR 32/21 A2990 RMK AO2 T03150213
KSGR 
19nm NW 
182153Z 16016G20KT 10SM CLR 34/18 A2987 RMK AO2 SLP115 T03390183
TAF
KHOU 
10nm N 
181720Z 1818/1918 17015G25KT P6SM FEW035 FEW250 FM190200 18010KT P6SM FEW020 SCT250 FM190800 18006KT P6SM SCT015 BKN025 FM191500 18012G20KT P6SM FEW025 SCT250 FM191700 18014G22KT P6SM FEW035 FEW250
KEFD 
11nm NE 
182000Z 1820/2002 16015G20KT 9999 FEW230 QNH2985INS BECMG 1902/1903 17009KT 9999 SCT017 QNH2987INS BECMG 1905/1906 19006KT 9000 BR BKN018 QNH2985INS BECMG 1913/1914 17006KT 9999 NSW FEW017 QNH2988INS BECMG 1914/1915 18015G20KT 9999 SKC QNH2972INS TX32/1820Z TN24/1907Z
KSGR 
19nm NW 
181720Z 1818/1918 17014G24KT P6SM FEW250 FM190200 17012KT P6SM FEW020 SCT250 FM190800 18008KT P6SM SCT020 FM191500 18014G22KT P6SM FEW025 SCT250
NOTAMs
Click for the latest NOTAMs
NOTAMs are issued by the DoD/FAA and will open in a separate window not controlled by AirNav.

 

 
 

Would you like to see your business listed on this page?

 If your business provides an interesting product or service to pilots, flight crews, aircraft, or users of the Wolfe Air Park, you should consider listing it here.  To start the listing process, click on the button below
 
Add a business
 

Other Pages about Wolfe Air Park

Update a link
 
Copyright © AirNav, LLC. All rights reserved. Privacy Policy  Contact